This demonstration page uses our WeatherBlox Daily Observations layout. Learn more.

40.92945, -100.16068

Hourly Observations for December 31, 2015

Temp ( °F °C ) Dew Point ( °F °C ) Humidity (%) Winds ( mph kmh ) Pressure ( in mb ) Visibility ( mi km ) Precip ( " mm )
12:15 am 00:15 Cloudy with Mist and Fog N/A N/A N/A WNW 6 9 N/A 0.75 1.207005 N/A
12:35 am 00:35 Cloudy with Mist and Fog N/A N/A N/A NW 3 6 N/A 1.25 2.011675 N/A
12:55 am 00:55 Partly Cloudy with Mist and Fog N/A N/A N/A Calm N/A 2.5 4.02335 N/A
1:15 am 01:15 Mostly Cloudy with Mist and Fog N/A N/A N/A Calm N/A 0.75 1.207005 N/A
1:35 am 01:35 Clear N/A N/A N/A W 3 6 N/A 7 11.26538 N/A
1:55 am 01:55 Clear N/A N/A N/A Calm N/A 7 11.26538 N/A
2:15 am 02:15 Clear N/A N/A N/A WNW 3 6 N/A 7 11.26538 N/A
2:35 am 02:35 Clear N/A N/A N/A W 5 7 N/A 7 11.26538 N/A
2:55 am 02:55 Partly Cloudy N/A N/A N/A WNW 5 7 N/A 10 16.0934 N/A
3:15 am 03:15 Partly Cloudy N/A N/A N/A W 5 7 N/A 10 16.0934 N/A
3:35 am 03:35 Partly Cloudy N/A N/A N/A W 5 7 N/A 10 16.0934 N/A
3:55 am 03:55 Partly Cloudy N/A N/A N/A WNW 5 7 N/A 10 16.0934 N/A
4:15 am 04:15 Partly Cloudy N/A N/A N/A WNW 6 9 N/A 10 16.0934 N/A
4:35 am 04:35 Clear N/A N/A N/A NW 5 7 N/A 10 16.0934 N/A
4:55 am 04:55 Clear N/A N/A N/A WNW 6 9 N/A 10 16.0934 N/A
5:15 am 05:15 Clear N/A N/A N/A WNW 6 9 N/A 10 16.0934 N/A
5:35 am 05:35 Clear N/A N/A N/A WNW 7 11 N/A 10 16.0934 N/A
5:55 am 05:55 Clear N/A N/A N/A WNW 6 9 N/A 10 16.0934 N/A
6:15 am 06:15 Clear N/A N/A N/A WNW 7 11 N/A 10 16.0934 N/A
6:35 am 06:35 Clear N/A N/A N/A WNW 7 11 N/A 10 16.0934 N/A
6:55 am 06:55 Clear N/A N/A N/A WNW 8 13 N/A 10 16.0934 N/A
7:15 am 07:15 Clear N/A N/A N/A WNW 6 9 N/A 10 16.0934 N/A
7:35 am 07:35 Clear N/A N/A N/A WNW 7 11 N/A 10 16.0934 N/A
7:55 am 07:55 Clear N/A N/A N/A WNW 8 13 N/A 10 16.0934 N/A
8:15 am 08:15 Sunny N/A N/A N/A WNW 7 11 N/A 10 16.0934 N/A
8:35 am 08:35 Sunny 11 -11.5 9 -12.9 89 89 WNW 8 13 30.5 1033 10 16.0934 N/A
8:55 am 08:55 Sunny N/A N/A N/A WNW 10 17 N/A 10 16.0934 N/A
9:15 am 09:15 Sunny 15 -9.2 13 -10.5 90 90 NW 9 15 30.53 1034 10 16.0934 N/A
9:35 am 09:35 Sunny 17 -8.4 14 -9.8 90 90 WNW 12 19 30.5 1033 10 16.0934 N/A
9:55 am 09:55 Sunny 19 -7.4 15 -9.5 85 85 NW 13 20 30.53 1034 10 16.0934 N/A
10:15 am 10:15 Sunny 20 -6.8 15 -9.4 82 82 NW 16 26 30.53 1034 10 16.0934 N/A
10:35 am 10:35 Sunny 21 -6.2 15 -9.3 79 79 WNW 16 26 30.53 1034 10 16.0934 N/A
10:55 am 10:55 Sunny 22 -5.6 16 -9.1 77 77 NW 13 20 30.53 1034 10 16.0934 N/A
11:15 am 11:15 Sunny 23 -5 16 -8.8 75 75 WNW 13 20 30.56 1035 10 16.0934 N/A
11:35 am 11:35 Sunny 24 -4.4 17 -8.5 73 73 NW 13 20 30.5 1033 10 16.0934 N/A
11:55 am 11:55 Sunny 26 -3.6 18 -7.9 72 72 NW 13 20 30.5 1033 10 16.0934 N/A
12:15 pm 12:15 Sunny 26 -3.3 18 -7.7 72 72 WNW 13 20 30.5 1033 10 16.0934 N/A
12:35 pm 12:35 Sunny 27 -2.7 19 -7.4 70 70 WNW 12 19 30.5 1033 10 16.0934 N/A
12:55 pm 12:55 Sunny 28 -2.3 19 -7.1 70 70 WNW 10 17 30.48 1032 10 16.0934 N/A
1:15 pm 13:15 Sunny 28 -2 19 -7.1 68 68 WNW 10 17 30.48 1032 10 16.0934 N/A
1:35 pm 13:35 Sunny 30 -1.2 20 -6.7 67 67 NW 12 19 30.48 1032 10 16.0934 N/A
1:55 pm 13:55 Sunny 31 -0.7 20 -6.8 64 64 W 12 19 30.48 1032 10 16.0934 N/A
2:15 pm 14:15 Sunny 31 -0.3 20 -6.6 63 63 W 9 15 30.45 1031 10 16.0934 N/A
2:35 pm 14:35 Sunny 31 -0.3 20 -6.4 64 64 W 8 13 30.45 1031 10 16.0934 N/A
2:55 pm 14:55 Sunny 32 0.1 19 -7.3 58 58 WNW 13 20 30.45 1031 10 16.0934 N/A
3:15 pm 15:15 Sunny 33 0.4 19 -7.3 57 57 WNW 9 15 30.45 1031 10 16.0934 N/A
3:35 pm 15:35 Partly Cloudy 32 0 19 -7.1 59 59 WNW 8 13 30.45 1031 10 16.0934 N/A
3:55 pm 15:55 Partly Cloudy 33 0.5 19 -7.4 56 56 NW 12 19 30.42 1030 10 16.0934 N/A
4:15 pm 16:15 Sunny 32 0.1 19 -7.5 57 57 NW 12 19 30.48 1032 10 16.0934 N/A
4:35 pm 16:35 Sunny 32 -0.1 19 -7.5 58 58 NW 12 19 30.48 1032 10 16.0934 N/A
4:55 pm 16:55 Sunny 31 -0.8 19 -7.5 61 61 NW 10 17 30.48 1032 10 16.0934 N/A
5:15 pm 17:15 Sunny 29 -1.8 18 -7.6 65 65 NNW 8 13 30.48 1032 10 16.0934 N/A
5:35 pm 17:35 Clear 25 -4 17 -8.3 72 72 NW 9 15 30.5 1033 10 16.0934 N/A
6:15 pm 18:15 Clear 22 -5.7 15 -9.3 76 76 NNW 8 13 30.56 1035 10 16.0934 N/A
6:35 pm 18:35 Clear 21 -6.2 15 -9.5 78 78 NW 8 13 30.56 1035 10 16.0934 N/A
6:55 pm 18:55 Clear 21 -6.1 15 -9.5 77 77 WNW 7 11 30.56 1035 10 16.0934 N/A
7:15 pm 19:15 Clear 20 -6.8 15 -9.7 80 80 WNW 10 17 30.56 1035 10 16.0934 N/A
7:35 pm 19:35 Clear 20 -6.5 15 -9.3 81 81 WNW 8 13 30.56 1035 10 16.0934 N/A
7:55 pm 19:55 Clear 21 -6 16 -9.1 79 79 WNW 8 13 30.56 1035 10 16.0934 N/A
8:15 pm 20:15 Clear 20 -6.5 15 -9.4 80 80 WNW 8 13 30.56 1035 10 16.0934 N/A
8:35 pm 20:35 Clear 21 -6 16 -9 80 80 WNW 10 17 30.56 1035 10 16.0934 N/A
8:55 pm 20:55 Clear 21 -6 15 -9.2 78 78 WNW 10 17 30.56 1035 10 16.0934 N/A
9:15 pm 21:15 Clear 20 -6.7 15 -9.5 81 81 WNW 10 17 30.56 1035 10 16.0934 N/A
9:35 pm 21:35 Clear 18 -7.6 14 -10.1 82 82 WNW 6 9 30.59 1036 10 16.0934 N/A
9:55 pm 21:55 Clear 17 -8.5 13 -10.5 86 86 WNW 7 11 30.59 1036 10 16.0934 N/A
10:15 pm 22:15 Clear 17 -8.1 14 -10.2 85 85 WNW 8 13 30.62 1037 10 16.0934 N/A
10:35 pm 22:35 Clear 18 -8 14 -10.2 84 84 WNW 8 13 30.62 1037 10 16.0934 N/A
10:55 pm 22:55 Clear 19 -7.5 14 -9.8 84 84 NW 10 17 30.59 1036 10 16.0934 N/A
11:15 pm 23:15 Clear 18 -7.7 14 -10.1 83 83 WNW 8 13 30.62 1037 10 16.0934 N/A
11:35 pm 23:35 Clear 18 -7.7 14 -10 84 84 WNW 8 13 30.62 1037 10 16.0934 N/A
11:55 pm 23:55 Clear 18 -7.7 14 -10.1 83 83 W 9 15 30.62 1037 10 16.0934 N/A

Powered by AerisWeather